Date,Installs,Update checks
2022-04-01,15,3
2022-04-02,35,14
2022-04-03,32,19
2022-04-04,21,34
2022-04-05,36,42
2022-04-06,27,48
2022-04-07,15,50
2022-04-08,13,52
2022-04-09,8,52
2022-04-10,13,57
2022-04-11,12,69
2022-04-12,10,66
2022-04-13,8,72
2022-04-14,12,69
2022-04-15,17,66
2022-04-16,11,67
2022-04-17,11,71
2022-04-18,13,68
2022-04-19,12,78
2022-04-20,14,93
2022-04-21,11,88
2022-04-22,11,92
2022-04-23,14,85
2022-04-24,11,81
2022-04-25,8,83
2022-04-26,17,96
2022-04-27,8,91
2022-04-28,17,97
2022-04-29,13,107
2022-04-30,9,101
2022-05-01,9,86
2022-05-02,12,99
2022-05-03,10,96
2022-05-04,11,103
2022-05-05,3,87
2022-05-06,1,100
2022-05-07,5,88
2022-05-08,19,107
2022-05-09,14,102
2022-05-10,10,102
2022-05-11,14,109
2022-05-12,9,123
2022-05-13,15,116
2022-05-14,12,118
2022-05-15,10,105
2022-05-16,7,106
2022-05-17,9,123
2022-05-18,12,113
2022-05-19,8,113
2022-05-20,6,118
2022-05-21,16,116
2022-05-22,12,121
2022-05-23,7,104
2022-05-24,11,129
2022-05-25,7,119
2022-05-26,9,127
2022-05-27,9,129
2022-05-28,3,114
2022-05-29,8,108
2022-05-30,1,126
2022-05-31,14,127
2022-06-01,18,132
2022-06-02,16,133
2022-06-03,19,117
2022-06-04,33,130
2022-06-05,45,152
2022-06-06,30,165
2022-06-07,30,179
2022-06-08,28,194
2022-06-09,22,193
2022-06-10,14,214
2022-06-11,23,196
2022-06-12,27,195
2022-06-13,27,216
2022-06-14,27,243
2022-06-15,12,223
2022-06-16,16,233
2022-06-17,22,229
2022-06-18,18,219
2022-06-19,30,210
2022-06-20,16,257
2022-06-21,18,243
2022-06-22,20,260
2022-06-23,17,232
2022-06-24,15,285
2022-06-25,143,252
2022-06-26,53,314
2022-06-27,37,344
2022-06-28,71,358
2022-06-29,118,390
2022-06-30,107,429
2022-07-01,18,483
2022-07-02,5,408
2022-07-03,7,395
2022-07-04,7,472
2022-07-05,3,477
2022-07-06,2,478
2022-07-07,8,448
2022-07-08,4,435
2022-07-09,12,392
2022-07-10,9,374
2022-07-11,7,475
2022-07-12,10,433
2022-07-13,17,445
2022-07-14,13,418
2022-07-15,7,450
2022-07-16,16,418
2022-07-17,17,377
2022-07-18,20,465
2022-07-19,16,464
2022-07-20,17,462
2022-07-21,10,486
2022-07-22,8,442
2022-07-23,11,424
2022-07-24,6,274
2022-07-25,8,487
2022-07-26,5,470
2022-07-27,7,459
2022-07-28,9,464
2022-07-29,6,465
2022-07-30,13,396
2022-07-31,10,399
2022-08-01,13,481
2022-08-02,6,482
2022-08-03,9,458
2022-08-04,8,420
2022-08-05,13,462
2022-08-06,13,425
2022-08-07,16,404
2022-08-08,18,440
2022-08-09,16,492
2022-08-10,9,483
2022-08-11,12,460
2022-08-12,12,466
2022-08-13,16,391
2022-08-14,13,426
2022-08-15,10,466
2022-08-16,12,449
2022-08-17,10,474
2022-08-18,15,480
2022-08-19,15,474
2022-08-20,14,428
2022-08-21,23,430
2022-08-22,39,514
2022-08-23,24,517
2022-08-24,15,511
2022-08-25,14,514
2022-08-26,20,533
2022-08-27,15,512
2022-08-28,25,467
2022-08-29,19,538
2022-08-30,25,542
2022-08-31,22,517
2022-09-01,7,534
2022-09-02,29,544
2022-09-03,21,500
2022-09-04,35,490
2022-09-05,23,546
2022-09-06,18,554
2022-09-07,11,568
2022-09-08,19,565
2022-09-09,22,586
2022-09-10,14,493
2022-09-11,26,500
2022-09-12,35,527
2022-09-13,20,580
2022-09-14,19,567
2022-09-15,28,587
2022-09-16,24,615
2022-09-17,26,561
2022-09-18,33,564
2022-09-19,26,595
2022-09-20,36,579
2022-09-21,24,592
2022-09-22,16,652
2022-09-23,22,642
2022-09-24,19,578
2022-09-25,14,580
2022-09-26,9,632
2022-09-27,12,629
2022-09-28,24,622
2022-09-29,19,586
2022-09-30,15,639
2022-10-01,7,515
2022-10-02,11,525
2022-10-03,15,522
2022-10-04,21,517
2022-10-05,21,546
2022-10-06,18,578
2022-10-07,17,610
2022-10-08,24,678
2022-10-09,13,658
2022-10-10,11,664
2022-10-11,19,651
2022-10-12,19,656
2022-10-13,21,681
2022-10-14,20,678
2022-10-15,22,636
2022-10-16,20,608
2022-10-17,19,757
2022-10-18,17,701
2022-10-19,17,729
2022-10-20,16,693
2022-10-21,30,710
2022-10-22,38,668
2022-10-23,15,649
2022-10-24,21,761
2022-10-25,16,724
2022-10-26,27,743
2022-10-27,12,723
2022-10-28,28,763
2022-10-29,26,672
2022-10-30,17,675
2022-10-31,8,771
2022-11-01,32,756
2022-11-02,31,763
2022-11-03,19,757
2022-11-04,19,748
2022-11-05,12,686
2022-11-06,15,675
2022-11-07,26,757
2022-11-08,12,741
2022-11-09,22,771
2022-11-10,17,755
2022-11-11,17,761
2022-11-12,21,701
2022-11-13,19,712
2022-11-14,24,804
2022-11-15,20,775
2022-11-16,20,768
2022-11-17,23,736
2022-11-18,38,758
2022-11-19,31,693
2022-11-20,26,714
2022-11-21,31,793
2022-11-22,23,798
2022-11-23,31,781
2022-11-24,17,833
2022-11-25,31,828
2022-11-26,17,755
2022-11-27,21,756
2022-11-28,23,866
2022-11-29,19,852
2022-11-30,27,821
2022-12-01,25,820
2022-12-02,16,851
2022-12-03,23,760
2022-12-04,31,769
2022-12-05,20,808
2022-12-06,30,865
2022-12-07,27,842
2022-12-08,26,872
2022-12-09,25,844
2022-12-10,21,750
2022-12-11,25,725
2022-12-12,20,819
2022-12-13,18,765
2022-12-14,8,728
2022-12-15,6,840
2022-12-16,11,792
2022-12-17,35,682
2022-12-18,26,703
2022-12-19,27,781
2022-12-20,28,768
2022-12-21,19,680
2022-12-22,22,742
2022-12-23,20,744
2022-12-24,23,681
2022-12-25,18,788
2022-12-26,16,756
2022-12-27,19,797
2022-12-28,22,800
2022-12-29,13,785
2022-12-30,16,868
2022-12-31,5,697
2023-01-01,20,707
2023-01-02,27,818
2023-01-03,14,906
2023-01-04,19,913
2023-01-05,18,879
2023-01-06,28,866
2023-01-07,20,812
2023-01-08,14,811
2023-01-09,17,884
2023-01-10,16,864
2023-01-11,24,881
2023-01-12,25,849
2023-01-13,21,882
2023-01-14,17,798
2023-01-15,20,819
2023-01-16,20,809
2023-01-17,21,778
2023-01-18,13,751
2023-01-19,24,730
2023-01-20,22,691
2023-01-21,13,572
2023-01-22,15,615
2023-01-23,11,591
2023-01-24,25,602
2023-01-25,20,629
2023-01-26,30,688
2023-01-27,34,727
2023-01-28,25,816
2023-01-29,22,845
2023-01-30,31,864
2023-01-31,31,958
2023-02-01,32,960
2023-02-02,18,930
2023-02-03,23,947
2023-02-04,15,888
2023-02-05,18,865
2023-02-06,23,972
2023-02-07,19,930
2023-02-08,14,962
2023-02-09,31,981
2023-02-10,19,1000
2023-02-11,18,923
2023-02-12,13,855
2023-02-13,11,985
2023-02-14,10,928
2023-02-15,35,954
2023-02-16,21,957
2023-02-17,19,965
2023-02-18,22,865
2023-02-19,31,876
2023-02-20,14,1001
2023-02-21,13,1002
2023-02-22,19,1012
2023-02-23,16,985
2023-02-24,20,968
2023-02-25,22,879
2023-02-26,17,882
2023-02-27,6,982
2023-02-28,16,982
2023-03-01,22,986
2023-03-02,16,953
2023-03-03,4,987
2023-03-04,16,854
2023-03-05,22,917
2023-03-06,19,961
2023-03-07,20,967
2023-03-08,23,959
2023-03-09,14,993
2023-03-10,7,1002
2023-03-11,30,876
2023-03-12,15,873
2023-03-13,14,1021
2023-03-14,17,966
2023-03-15,20,968
2023-03-16,15,968
2023-03-17,6,948
2023-03-18,9,866
2023-03-19,8,841
2023-03-20,20,979
2023-03-21,16,985
2023-03-22,15,976
2023-03-23,12,982
2023-03-24,14,949
2023-03-25,17,912
2023-03-26,13,874
2023-03-27,13,969
2023-03-28,15,995
2023-03-29,11,894
2023-03-30,11,962
2023-03-31,16,970
2023-04-01,17,927
2023-04-02,16,893
2023-04-03,20,976
2023-04-04,28,981
2023-04-05,23,923
2023-04-06,9,941
2023-04-07,8,1000
2023-04-08,16,901
2023-04-09,17,919
2023-04-10,13,1024
2023-04-11,13,995
2023-04-12,14,1007
2023-04-13,8,977
2023-04-14,12,1023
2023-04-15,17,916
2023-04-16,15,885
2023-04-17,11,970
2023-04-18,14,958
2023-04-19,8,948
2023-04-20,13,956
2023-04-21,24,983
2023-04-22,16,898
2023-04-23,13,948
2023-04-24,14,974
2023-04-25,8,960
2023-04-26,10,926
2023-04-27,17,962
2023-04-28,18,934
2023-04-29,19,791
2023-04-30,14,773
2023-05-01,7,755
2023-05-02,22,780
2023-05-03,14,878
2023-05-04,5,997
2023-05-05,7,991
2023-05-06,1,965
2023-05-07,4,902
2023-05-08,10,1002
2023-05-09,6,947
2023-05-10,11,956
2023-05-11,10,970
2023-05-12,8,940
2023-05-13,8,888
2023-05-14,8,833
2023-05-15,7,972
2023-05-16,10,943
2023-05-17,4,992
2023-05-18,6,899
2023-05-19,9,967
2023-05-20,9,882
2023-05-21,10,872
2023-05-22,6,980
2023-05-23,11,927
2023-05-24,5,933
2023-05-25,9,931
2023-05-26,11,956
2023-05-27,9,854
2023-05-28,14,871
2023-05-29,10,959
2023-05-30,14,949
2023-05-31,16,949
2023-06-01,16,918
2023-06-02,10,975
2023-06-03,18,865
2023-06-04,13,826
2023-06-05,9,952
2023-06-06,9,943
2023-06-07,6,961
2023-06-08,7,898
2023-06-09,11,974
2023-06-10,13,847
2023-06-11,6,847
2023-06-12,5,993
2023-06-13,5,926
2023-06-14,7,960
2023-06-15,3,920
2023-06-16,7,929
2023-06-17,13,861
2023-06-18,12,851
2023-06-19,13,936
2023-06-20,15,910
2023-06-21,8,917
2023-06-22,11,789
2023-06-23,6,799
2023-06-24,10,857
2023-06-25,9,906
2023-06-26,12,926
2023-06-27,8,959
2023-06-28,10,924
2023-06-29,12,975
2023-06-30,6,948
2023-07-01,4,874
2023-07-02,10,852
2023-07-03,5,956
2023-07-04,5,930
2023-07-05,6,928
2023-07-06,3,920
2023-07-07,2,978
2023-07-08,5,861
2023-07-09,12,831
2023-07-10,8,930
2023-07-11,8,919
2023-07-12,3,919
2023-07-13,10,914
2023-07-14,9,891
2023-07-15,2,828
2023-07-16,5,809
2023-07-17,3,885
2023-07-18,12,880
2023-07-19,6,873
2023-07-20,8,866
2023-07-21,8,879
2023-07-22,22,774
2023-07-23,7,784
2023-07-24,3,914
2023-07-25,2,881
2023-07-26,6,873
2023-07-27,3,883
2023-07-28,11,866
2023-07-29,5,819
2023-07-30,10,792
2023-07-31,4,895
2023-08-01,7,897
2023-08-02,9,849
2023-08-03,8,883
2023-08-04,6,859
2023-08-05,9,787
2023-08-06,9,784
2023-08-07,12,826
2023-08-08,8,861
2023-08-09,9,877
2023-08-10,7,835
2023-08-11,4,873
2023-08-12,5,792
2023-08-13,3,780
2023-08-14,6,862
2023-08-15,11,849
2023-08-16,14,891
2023-08-17,5,840
2023-08-18,3,862
2023-08-19,7,803
2023-08-20,12,773
2023-08-21,6,836
2023-08-22,4,823
2023-08-23,11,863
2023-08-24,10,811
2023-08-25,8,858
2023-08-26,7,778
2023-08-27,9,773
2023-08-28,8,875
2023-08-29,9,862
2023-08-30,7,851
2023-08-31,6,851
2023-09-01,1,855
2023-09-02,6,773
2023-09-03,5,752
2023-09-04,11,817
2023-09-05,11,820
2023-09-06,9,838
2023-09-07,3,855
2023-09-08,8,848
2023-09-09,5,791
2023-09-10,1,751
2023-09-11,1,855
2023-09-12,4,840
2023-09-13,3,857
2023-09-14,8,826
2023-09-15,4,865
2023-09-16,5,783
2023-09-17,7,740
2023-09-18,1,831
2023-09-19,4,828
2023-09-20,8,809
2023-09-21,6,827
2023-09-22,5,841
2023-09-23,3,762
2023-09-24,12,723
2023-09-25,6,798
2023-09-26,2,817
2023-09-27,4,785
2023-09-28,7,787
2023-09-29,9,625
2023-09-30,4,631
2023-10-01,6,626
2023-10-02,8,622
2023-10-03,4,634
2023-10-04,1,666
2023-10-05,1,706
2023-10-06,2,749
2023-10-07,2,846
2023-10-08,5,855
2023-10-09,2,801
2023-10-10,7,795
2023-10-11,3,830
2023-10-12,2,831
2023-10-13,5,786
2023-10-14,7,705
2023-10-15,3,769
2023-10-16,2,815
2023-10-17,3,804
2023-10-18,10,808
2023-10-19,4,790
2023-10-20,5,786
2023-10-21,5,732
2023-10-22,4,707
2023-10-23,1,812
2023-10-24,0,773
2023-10-25,4,805
2023-10-26,8,798
2023-10-27,7,799
2023-10-28,2,785
2023-10-29,5,696
2023-10-30,5,799
2023-10-31,7,773
2023-11-01,3,823
2023-11-02,6,824
2023-11-03,2,768
2023-11-04,4,742
2023-11-05,2,725
2023-11-06,4,815
2023-11-07,3,760
2023-11-08,7,803
2023-11-09,3,794
2023-11-10,6,784
2023-11-11,4,723
2023-11-12,3,710
2023-11-13,3,806
2023-11-14,1,783
2023-11-15,7,748
2023-11-16,5,778
2023-11-17,6,730
2023-11-18,4,711
2023-11-19,5,733
2023-11-20,4,805
2023-11-21,6,792
2023-11-22,10,787
2023-11-23,3,778
2023-11-24,3,760
2023-11-25,4,737
2023-11-26,6,698
2023-11-27,6,794
2023-11-28,5,808
2023-11-29,5,766
2023-11-30,3,758
2023-12-01,2,776
2023-12-02,4,751
2023-12-03,4,690
2023-12-04,6,780
2023-12-05,4,404
2023-12-06,3,341
2023-12-07,7,334
2023-12-08,4,372
2023-12-09,5,332
2023-12-10,3,300
2023-12-11,2,288
2023-12-12,3,324
2023-12-13,2,335
2023-12-14,3,342
2023-12-15,2,313
2023-12-16,1,320
2023-12-17,0,272
2023-12-18,2,311
2023-12-19,0,319
2023-12-20,0,307
2023-12-21,2,314
2023-12-22,0,291
2023-12-23,4,269
2023-12-24,3,280
2023-12-25,1,331
2023-12-26,0,323
2023-12-27,3,312
2023-12-28,4,328
2023-12-29,6,325
2023-12-30,1,298
2023-12-31,3,255
2024-01-01,4,295
2024-01-02,0,326
2024-01-03,2,309
2024-01-04,10,309
2024-01-05,7,320
2024-01-06,4,301
2024-01-07,3,280
2024-01-08,0,334
2024-01-09,2,301
2024-01-10,2,332
2024-01-11,1,321
2024-01-12,0,304
2024-01-13,4,301
2024-01-14,3,281
2024-01-15,9,333
2024-01-16,3,336
2024-01-17,4,312
2024-01-18,0,292
2024-01-19,9,324
2024-01-20,6,305
2024-01-21,10,287
2024-01-22,1,333
2024-01-23,4,535
2024-01-24,1,534
2024-01-25,1,526
2024-01-26,4,510
2024-01-27,2,446
2024-01-28,11,490
2024-01-29,26,599
2024-01-30,27,576
2024-01-31,32,548
2024-02-01,17,589
2024-02-02,13,564
2024-02-03,15,512
2024-02-04,10,548
2024-02-05,8,537
2024-02-06,5,541
2024-02-07,21,459
2024-02-08,11,448
2024-02-09,8,378
2024-02-10,12,381
2024-02-11,17,385
2024-02-12,9,389
2024-02-13,10,404
2024-02-14,11,410
2024-02-15,16,456
2024-02-16,13,483
2024-02-17,11,508
2024-02-18,23,631
2024-02-19,20,635
2024-02-20,10,652
2024-02-21,9,668
2024-02-22,4,658
2024-02-23,6,651
2024-02-24,6,579
2024-02-25,5,595
2024-02-26,3,656
2024-02-27,5,637
2024-02-28,3,634
2024-02-29,5,649
2024-03-01,4,664
2024-03-02,7,620
2024-03-03,3,588
2024-03-04,5,676
2024-03-05,6,642
2024-03-06,4,696
2024-03-07,3,653
2024-03-08,2,645
2024-03-09,6,608
2024-03-10,2,592
2024-03-11,2,706
2024-03-12,14,681
2024-03-13,9,656
2024-03-14,2,664
2024-03-15,10,691
2024-03-16,14,609
2024-03-17,9,600
2024-03-18,4,728
2024-03-19,1,667
2024-03-20,10,683
2024-03-21,3,700
2024-03-22,5,655
2024-03-23,10,616
2024-03-24,6,611
2024-03-25,4,678
2024-03-26,5,663
2024-03-27,9,663
2024-03-28,3,646
2024-03-29,6,656
2024-03-30,0,617
2024-03-31,1,591
2024-04-01,5,684
2024-04-02,5,627
2024-04-03,9,650
2024-04-04,6,536
2024-04-05,3,565
2024-04-06,4,572
2024-04-07,12,655
2024-04-08,10,657
2024-04-09,7,647
2024-04-10,5,620
2024-04-11,4,612
2024-04-12,9,636
2024-04-13,3,579
2024-04-14,7,589
2024-04-15,7,670
2024-04-16,7,657
2024-04-17,4,638
2024-04-18,7,620
2024-04-19,4,649
2024-04-20,3,591
2024-04-21,1,606
2024-04-22,1,637
2024-04-23,2,633
2024-04-24,2,636
2024-04-25,1,561
2024-04-26,1,499
2024-04-27,0,457
2024-04-28,3,485
2024-04-29,1,496
2024-04-30,1,487
2024-05-01,4,383
2024-05-02,0,369
2024-05-03,1,394
2024-05-04,2,406
2024-05-05,11,450
2024-05-06,1,528
2024-05-07,2,482
2024-05-08,4,513
2024-05-09,6,485
2024-05-10,3,464
2024-05-11,1,478
2024-05-12,2,439
2024-05-13,3,493
2024-05-14,4,490
2024-05-15,1,464
2024-05-16,3,473
2024-05-17,5,450
2024-05-18,7,453
2024-05-19,4,440
2024-05-20,2,486
2024-05-21,0,464
2024-05-22,2,453
2024-05-23,1,488
2024-05-24,1,472
2024-05-25,1,442
2024-05-26,2,423
2024-05-27,3,499
2024-05-28,1,475
2024-05-29,1,461
2024-05-30,0,463
2024-05-31,2,467
2024-06-01,0,412
2024-06-02,0,396
2024-06-03,0,456
2024-06-04,3,447
2024-06-05,4,446
2024-06-06,6,461
2024-06-07,1,457
2024-06-08,4,377
2024-06-09,4,413
2024-06-10,3,399
2024-06-11,4,490
2024-06-12,2,480
2024-06-13,2,449
2024-06-14,1,453
2024-06-15,1,414
2024-06-16,5,400
2024-06-17,3,458
2024-06-18,4,480
2024-06-19,1,18
